User: anonymous   Login
Location: Unspecified
(0.0000°N, 0.0000°E)
Time: 05:30:57
(UTC+00:00)
Language:

Fuji - Orbit

View from above orbital plane
View from above orbital plane
View from above satellite
View from above satellite

Ground track
Ground track

The orbit data is extracted from the following two-line orbital elements,

1 16909U 86061B   17177.90775293 -.00000106 +00000-0 -56881-4 0  9992
2 16909 050.0138 148.9081 0011208 104.1916 281.1448 12.44467207404013
Epoch (UTC): 26 June 2017 21:47:09
Eccentricity: 0.0011208
inclination: 50.0138°
perigee height: 1479 km
apogee height: 1496 km
right ascension of ascending node: 148.9081°
argument of perigee: 104.1916°
revolutions per day: 12.44467207
mean anomaly at epoch: 281.1448°
orbit number at epoch: 40401

The dashed part of the orbit path shows where the satellite is in the earth's shadow,  

DLR